Regional Weather Roundup
Issued by NWS Green Bay, WI

Home | Current Version | Previous Version | Text Only | Print | Product List | Glossary On
Versions: 1 2 3 4 5 6 7 8 9 10 11 12 13 14 15 16 17 18 19 20 21 22 23 24 25 26 27 28 29 30 31 32 33 34 35 36 37 38 39 40 41 42 43 44 45 46 47 48 49 50
000
ASUS43 KGRB 022300
RWRGRB

NORTH-CENTRAL AND NORTHEAST WISCONSIN REGIONAL WEATHER ROUNDUP
NATIONAL WEATHER SERVICE GREEN BAY WI
500 PM CST FRI DEC 02 2016

WIZ005-009-010>012-018-019-030000-
NORTH CENTRAL WISCONSIN

CITY           SKY/WX    TMP DP  RH WIND       PRES   REMARKS
IRONWOOD       CLOUDY    29  27  92 W8        30.21R
MANITOWISH WTR NOT AVBL
ARBOR VITAE    NOT AVBL
EAGLE RIVER    NOT AVBL
LAND O LAKES   NOT AVBL
RHINELANDER    CLOUDY    31  27  85 W5        30.18S
PHILLIPS       CLOUDY    28  26  89 CALM      30.19R
ANTIGO         NOT AVBL
TOMAHAWK       NOT AVBL
MERRILL        CLOUDY    31  26  80 CALM      30.21R
$$

WIZ013-073-030000-
NORTHEAST WISCONSIN

CITY           SKY/WX    TMP DP  RH WIND       PRES   REMARKS
IRON MOUNTAIN  CLOUDY    34  26  72 NW8       30.15R
MARINETTE      CLOUDY    36  28  73 NW5       30.19R
$$

WIZ017-030-035>037-045-030000-
CENTRAL WISCONSIN

CITY           SKY/WX    TMP DP  RH WIND       PRES   REMARKS
MEDFORD        NOT AVBL
WAUSAU         CLOUDY    31  23  72 N7        30.19R
MOSINEE        CLOUDY    30  27  86 N6        30.21R
MARSHFIELD     CLOUDY    30  21  69 N9        30.21R
WISC RAPIDS    CLOUDY    31  23  72 W6        30.24R
STEVENS POINT  NOT AVBL
WAUPACA        CLOUDY    34  25  70 CALM      30.23R
SHAWANO        CLOUDY    36  27  69 NW3       30.20S
CLINTONVILLE   CLOUDY    34  25  69 W6        30.21R
WAUTOMA        CLOUDY    32  24  72 W7        30.25R
$$

WIZ038-039-048-051-030000-
FOX VALLEY

CITY           SKY/WX    TMP DP  RH WIND       PRES   REMARKS
NWS GREEN BAY  CLOUDY    36  28  73 W8        30.20S
APPLETON       CLOUDY    32  25  74 W6        30.20R
OSHKOSH        CLOUDY    32  24  72 W7        30.22R
FOND DU LAC    CLOUDY    33  23  66 W8        30.24R
$$

WIZ022-050-052-030000-
EAST CENTRAL WISCONSIN

CITY           SKY/WX    TMP DP  RH WIND       PRES   REMARKS
EPHRAIM        CLOUDY    36  29  77 NW7       30.16R
WASHINGTON ISL NOT AVBL
STURGEON BAY   CLOUDY    37  28  70 W7        30.19R
MANITOWOC      NOT AVBL
SHEBOYGAN      CLOUDY    34  25  69 W6        30.22R
$$

LMZ563-521-522-541>543-030000-
LAKESHORE

STATION/POSITION TIME  TEMP    WIND        PRES    VSBY  WAVE
                       AIR SEA DIR/SP/G                  HT/PER
                 (UTC) (F)     (DEG/KT/KT) (MB)    (MI)  (FT/S)
SHEBOYGAN LKSHOR 2200   35     310/  6/  8 1023.4R
NORTHPORT PIER   2240   38     300/  7/ 12 1021.3R
CHAMBERS ISLAND  2240   38     270/  6/ 10 1021.3R
$$




USA.gov is the U.S. government's official web portal to all federal, state and local government web resources and services.